Weather reports worldwide

Advertisment
Shawbury, United Kingdom (3414): temperature & dewpoint: 09.08.2018 20:00:00 - 15.08.2018 20:00:00 (BST)Shawbury, United Kingdom (3414): temperature -20cm & temperature -100cm: 09.08.2018 20:00:00 - 15.08.2018 20:00:00 (BST)Shawbury, United Kingdom (3414): wind speed & gusts: 09.08.2018 20:00:00 - 15.08.2018 20:00:00 (BST)Shawbury, United Kingdom (3414): wind direction: 09.08.2018 20:00:00 - 15.08.2018 20:00:00 (BST)Shawbury, United Kingdom (3414): reduced air pressure: 09.08.2018 20:00:00 - 15.08.2018 20:00:00 (BST)Shawbury, United Kingdom (3414): visibility: 09.08.2018 20:00:00 - 15.08.2018 20:00:00 (BST)Shawbury, United Kingdom (3414): sunshine duration: 09.08.2018 20:00:00 - 15.08.2018 20:00:00 (BST)Shawbury, United Kingdom (3414): precipitation: 09.08.2018 20:00:00 - 15.08.2018 20:00:00 (BST)
Date & Time tt [°C] td [°C] tt -20cm [°C] tt -100cm [°C] ff [km/h] ff [kn] fx [km/h] fx [kn] dd ppp [hPa] vv [km] sd [min] rr [mm]
15.08.2018 20:00:00 - - - - - - - - - - - - -
15.08.2018 19:00:00 20,1 15,1 - - 29 16 46 25 SSW 1012,4 25 6 0,0
15.08.2018 18:00:00 20,7 14,9 - - 24 13 54 29 SSW 1012,6 28 0 0,0
15.08.2018 17:00:00 21,2 14,6 - - 37 20 50 27 SW 1013,2 10 24 0,0
15.08.2018 16:00:00 21,3 15,0 - - 29 16 - - SSW 1013,5 10 6 0,0
15.08.2018 15:00:00 21,4 15,2 - - 29 16 - - SSW 1014,2 10 0 0,0
15.08.2018 14:00:00 22,1 15,4 - - 31 17 - - SW 1014,4 10 0 0,0
15.08.2018 13:00:00 22,6 15,3 - - 29 16 46 25 SW 1014,4 10 6 0,0
15.08.2018 12:00:00 21,8 14,9 - - 35 19 50 27 SW 1014,7 10 36 0,0
15.08.2018 11:00:00 21,0 15,4 - - 35 19 46 25 SW 1015,0 10 6 0,0
15.08.2018 10:00:00 19,2 14,5 17,2 16,5 26 14 - - SW 1015,3 10 0 0,0
15.08.2018 09:00:00 18,6 14,6 - - 13 7 - - SSW 1015,4 10 0 0,0
15.08.2018 08:00:00 17,6 15,0 - - 18 10 - - WSW 1015,6 10 0 0,0
15.08.2018 07:00:00 16,8 14,8 - - 21 11 - - SSW 1015,4 10 0 0,0
15.08.2018 06:00:00 17,0 14,4 - - 15 8 - - S 1015,4 10 0 0,0
15.08.2018 05:00:00 16,6 14,4 - - 18 10 - - SW 1015,6 22 0 0,0
15.08.2018 04:00:00 16,7 13,9 - - 16 9 - - SW 1015,7 22 0 0,0
15.08.2018 03:00:00 16,5 13,7 - - 13 7 - - SSW 1016,1 10 0 0,0
15.08.2018 02:00:00 15,7 13,5 - - 21 11 - - SW 1016,4 19 0 0,0
15.08.2018 01:00:00 15,5 13,5 - - 9 5 - - S 1016,7 10 - 0,0
15.08.2018 00:00:00 15,7 13,1 - - 15 8 - - S 1016,6 23 0 0,0
14.08.2018 23:00:00 15,9 13,4 - - 16 9 - - SW 1016,8 24 0 0,0
14.08.2018 22:00:00 16,5 13,3 - - 22 12 - - WSW 1016,8 25 0 0,0
14.08.2018 21:00:00 17,1 13,7 - - 18 10 - - WSW 1016,7 25 12 0,0
14.08.2018 20:00:00 18,7 13,9 - - 24 13 - - WSW 1016,2 25 30 0,0
14.08.2018 19:00:00 19,1 13,9 - - 28 15 - - WSW 1016,3 30 0 0,0
14.08.2018 18:00:00 19,5 13,9 - - 26 14 - - WSW 1016,1 29 0 0,0
14.08.2018 17:00:00 20,1 14,2 - - 24 13 - - WSW 1015,8 10 0 0,0
14.08.2018 16:00:00 20,4 14,1 - - 24 13 - - WSW 1015,9 10 0 0,0
14.08.2018 15:00:00 20,0 14,8 - - 24 13 - - WSW 1016,0 10 0 0,0
14.08.2018 14:00:00 19,9 14,4 - - 24 13 - - WSW 1015,8 10 0 0,0
14.08.2018 13:00:00 20,5 13,3 - - 28 15 - - WSW 1015,5 10 18 0,0
14.08.2018 12:00:00 20,4 13,4 - - 24 13 - - WSW 1015,4 10 18 0,0
14.08.2018 11:00:00 20,5 14,8 - - 22 12 - - WSW 1015,1 10 24 0,0
14.08.2018 10:00:00 20,4 14,5 17,2 16,5 21 11 - - WSW 1015,0 10 48 0,0
14.08.2018 09:00:00 18,4 13,8 - - 18 10 - - SW 1014,6 10 30 0,0
14.08.2018 08:00:00 15,3 13,6 - - 5 3 - - SW 1014,6 10 0 0,0
14.08.2018 07:00:00 14,0 12,8 - - 8 4 - - WSW 1014,3 10 0 0,0
14.08.2018 06:00:00 14,2 12,8 - - 9 5 - - WSW 1014,1 10 0 0,0
14.08.2018 05:00:00 15,0 13,1 - - 13 7 - - W 1013,8 23 0 0,0
14.08.2018 04:00:00 15,1 12,7 - - 11 6 - - W 1013,8 26 0 0,0
14.08.2018 03:00:00 14,8 12,3 - - 11 6 - - W 1013,4 30 0 0,0
14.08.2018 02:00:00 14,4 12,4 - - 11 6 - - W 1013,5 30 0 0,0
14.08.2018 01:00:00 13,5 11,8 - - 2 1 - - NW 1013,6 30 - 0,0
14.08.2018 00:00:00 13,4 11,2 - - 9 5 - - W 1013,0 30 0 0,0
13.08.2018 23:00:00 14,6 11,2 - - 11 6 - - NW 1012,5 35 0 0,0
13.08.2018 22:00:00 14,6 11,2 - - 11 6 - - NW 1012,1 35 0 0,0
13.08.2018 21:00:00 16,1 11,3 - - 13 7 - - NNW 1011,5 10 6 0,0
13.08.2018 20:00:00 18,2 11,7 - - 15 8 - - NW 1010,7 40 60 0,0
13.08.2018 19:00:00 19,4 11,6 - - 18 10 - - NW 1010,0 10 54 0,0
13.08.2018 18:00:00 19,7 12,0 - - 16 9 - - NW 1009,6 10 42 0,0
13.08.2018 17:00:00 19,0 13,0 - - 22 12 - - NW 1009,7 10 6 0,0
13.08.2018 16:00:00 19,3 14,2 - - 18 10 - - WNW 1009,2 10 0 0,0
13.08.2018 15:00:00 19,1 14,4 - - 18 10 - - NW 1008,6 10 6 0,0
13.08.2018 14:00:00 19,9 14,7 - - 22 12 - - WNW 1008,1 45 6 0,0
13.08.2018 13:00:00 19,2 14,8 - - 18 10 - - NW 1007,8 10 0 0,0
13.08.2018 12:00:00 19,2 14,6 - - 13 7 - - NNW 1007,4 10 0 0,0
13.08.2018 11:00:00 19,0 14,9 - - 8 4 - - WNW 1007,1 40 36 0,0
13.08.2018 10:00:00 17,4 14,4 17,2 16,5 8 4 - - W 1006,9 40 42 0,0
13.08.2018 09:00:00 15,4 13,7 - - 5 3 - - WNW 1006,8 10 0 0,0
13.08.2018 08:00:00 14,9 13,7 - - 4 2 - - W 1006,4 10 6 0,0
13.08.2018 07:00:00 14,9 14,3 - - 9 5 - - W 1005,9 10 0 0,0
13.08.2018 06:00:00 15,4 14,8 - - 8 4 - - W 1005,7 10 0 0,0
13.08.2018 05:00:00 15,4 14,8 - - 8 4 - - WNW 1005,5 19 0 0,0
13.08.2018 04:00:00 15,3 15,0 - - 5 3 - - NW 1005,4 17 0 0,0
13.08.2018 03:00:00 15,2 14,9 - - 2 1 - - WNW 1005,5 19 0 0,0
13.08.2018 02:00:00 15,1 14,9 - - 2 1 - - W 1005,5 22 0 0,0
13.08.2018 01:00:00 15,3 15,0 - - 5 3 - - SSW 1005,6 13 - 0,0
13.08.2018 00:00:00 15,5 15,1 - - 8 4 - - WSW 1005,7 10 0 1,0
12.08.2018 23:00:00 16,2 15,3 - - 9 5 - - SSW 1005,6 10 0 0,8
12.08.2018 22:00:00 17,1 15,8 - - 5 3 - - SW 1005,7 30 0 6,2
12.08.2018 21:00:00 18,4 16,2 - - 9 5 - - ESE 1005,3 30 0 0,0
12.08.2018 20:00:00 19,2 16,0 - - 13 7 - - SE 1005,1 35 24 0,0
12.08.2018 19:00:00 19,7 16,0 - - 16 9 - - SE 1005,1 10 24 0,0
12.08.2018 18:00:00 18,9 16,5 - - 13 7 - - SSE 1005,5 30 0 0,0
12.08.2018 17:00:00 18,6 16,6 - - 21 11 - - S 1006,0 30 0 0,2
12.08.2018 16:00:00 20,3 16,1 - - 21 11 - - SE 1006,0 35 0 0,0
12.08.2018 15:00:00 20,4 16,0 - - 22 12 - - SSE 1006,3 35 0 0,0
12.08.2018 14:00:00 19,6 16,4 - - 21 11 - - SSE 1006,9 35 0 0,0
12.08.2018 13:00:00 18,5 16,3 - - 18 10 - - S 1007,6 30 0 0,0
12.08.2018 12:00:00 18,4 16,2 - - 16 9 - - S 1007,8 35 0 0,0
12.08.2018 11:00:00 17,4 15,8 - - 16 9 - - SSE 1007,8 10 0 0,0
12.08.2018 10:00:00 17,0 15,9 17,0 16,7 11 6 - - SSE 1008,1 27 0 0,2
12.08.2018 09:00:00 16,9 15,5 - - 18 10 - - S 1008,1 35 0 0,0
12.08.2018 08:00:00 16,7 15,7 - - 16 9 - - S 1008,5 30 0 0,0
12.08.2018 07:00:00 16,2 15,6 - - 16 9 - - S 1008,5 10 0 1,8
12.08.2018 06:00:00 16,4 15,6 - - 15 8 - - SSE 1008,8 25 0 0,4
12.08.2018 05:00:00 16,4 15,6 - - 11 6 - - SSE 1009,1 29 0 0,2
12.08.2018 04:00:00 16,1 15,5 - - 11 6 - - SSE 1009,8 15 0 2,6
12.08.2018 03:00:00 16,2 15,3 - - 15 8 - - SSE 1010,8 15 0 0,4
12.08.2018 02:00:00 16,4 15,0 - - 13 7 - - SSE 1011,5 21 0 0,2
12.08.2018 01:00:00 16,5 14,9 - - 18 10 - - S 1012,2 30 - 0,0
12.08.2018 00:00:00 16,6 14,9 - - 21 11 - - S 1012,9 25 0 0,0
11.08.2018 23:00:00 16,6 15,0 - - 21 11 - - S 1013,4 22 0 0,0
11.08.2018 22:00:00 16,6 15,2 - - 18 10 - - SSE 1013,9 10 0 0,0
11.08.2018 21:00:00 16,6 15,5 - - 15 8 - - SSE 1014,5 40 0 0,4
11.08.2018 20:00:00 16,2 15,5 - - 13 7 - - SE 1015,1 4,4 0 1,0
11.08.2018 19:00:00 16,4 15,0 - - 16 9 - - SSE 1015,9 4,3 0 0,4
11.08.2018 18:00:00 18,1 12,7 - - 21 11 - - SSE 1016,6 40 0 0,0
11.08.2018 17:00:00 17,1 12,8 - - 18 10 - - SSE 1017,4 16 0 0,0
11.08.2018 16:00:00 18,5 11,0 - - 26 14 - - S 1017,9 40 0 0,0
11.08.2018 15:00:00 19,0 9,1 - - 26 14 - - S 1018,9 35 0 0,0
11.08.2018 14:00:00 19,0 8,1 - - 24 13 - - S 1019,4 35 0 0,0
11.08.2018 13:00:00 19,6 6,0 - - 24 13 - - S 1019,8 45 18 0,0
11.08.2018 12:00:00 18,7 5,8 - - 22 12 - - SSE 1020,3 10 54 0,0
11.08.2018 11:00:00 17,8 8,4 - - 13 7 - - S 1020,9 35 60 0,0
11.08.2018 10:00:00 15,9 10,3 16,7 16,7 9 5 - - S 1021,4 10 60 0,0
11.08.2018 09:00:00 13,8 10,9 - - 5 3 - - SSE 1021,8 10 60 0,0
11.08.2018 08:00:00 9,7 9,2 - - 2 1 - - E 1022,1 28 60 0,0
11.08.2018 07:00:00 6,5 6,2 - - 2 1 - - ESE 1022,3 14 42 0,0
11.08.2018 06:00:00 6,0 5,6 - - 0 0 - - N 1022,0 3,0 0 0,0
11.08.2018 05:00:00 6,6 5,9 - - 0 0 - - N 1022,0 15 0 0,0
11.08.2018 04:00:00 8,4 7,5 - - 2 1 - - SW 1021,8 29 0 0,0
11.08.2018 03:00:00 8,1 7,0 - - 9 5 - - SW 1021,8 29 0 0,0
11.08.2018 02:00:00 9,0 7,6 - - 13 7 - - W 1021,7 30 0 0,0
11.08.2018 01:00:00 8,0 6,8 - - 11 6 - - WSW 1021,6 30 - 0,0
11.08.2018 00:00:00 8,4 7,0 - - 13 7 - - W 1021,3 30 0 0,0
10.08.2018 23:00:00 9,9 7,3 - - 8 4 - - W 1021,0 10 0 0,0
10.08.2018 22:00:00 10,7 8,2 - - 5 3 - - W 1020,4 10 0 0,0
10.08.2018 21:00:00 13,1 7,4 - - 13 7 - - WNW 1019,7 40 36 0,0
10.08.2018 20:00:00 15,3 6,7 - - 16 9 - - WNW 1018,9 35 42 0,0
10.08.2018 19:00:00 15,6 9,6 - - 11 6 - - WSW 1018,2 35 42 0,0
10.08.2018 18:00:00 15,3 10,0 - - 5 3 - - NW 1017,9 35 36 0,0
10.08.2018 17:00:00 14,2 9,4 - - 11 6 - - W 1017,7 10 30 0,4
10.08.2018 16:00:00 14,1 10,3 - - 8 4 - - NNW 1017,2 10 18 0,0
10.08.2018 15:00:00 12,1 9,1 - - 13 7 - - N 1016,9 25 24 1,6
10.08.2018 14:00:00 13,3 9,8 - - 8 4 - - NNW 1016,3 10 30 0,4
10.08.2018 13:00:00 13,3 10,5 - - 8 4 - - NE 1015,9 10 12 0,6
10.08.2018 12:00:00 11,7 10,0 - - 13 7 - - WNW 1016,5 10 0 3,4
10.08.2018 11:00:00 14,2 9,4 - - 9 5 - - W 1015,5 7 0 0,2
10.08.2018 10:00:00 15,4 8,7 17,2 16,9 9 5 - - SSW 1015,1 10 30 0,0
10.08.2018 09:00:00 14,6 10,7 - - 5 3 - - S 1015,5 10 36 0,0
10.08.2018 08:00:00 12,8 9,8 - - 13 7 - - SSW 1015,6 25 54 0,0
10.08.2018 07:00:00 11,0 9,1 - - 9 5 - - S 1015,7 10 0 1,0
10.08.2018 06:00:00 10,8 8,8 - - 8 4 - - SW 1015,7 9 0 0,0
10.08.2018 05:00:00 11,3 8,3 - - 5 3 - - S 1015,2 10 0 0,0
10.08.2018 04:00:00 11,2 8,0 - - 8 4 - - SW 1015,3 26 0 0,0
10.08.2018 03:00:00 10,0 7,5 - - 9 5 - - SW 1015,5 25 0 0,0
10.08.2018 02:00:00 10,6 7,6 - - 5 3 - - WSW 1015,6 25 0 0,0
10.08.2018 01:00:00 10,6 7,6 - - 11 6 - - SSW 1015,7 27 - 0,0
10.08.2018 00:00:00 10,7 7,7 - - 11 6 - - SW 1015,5 26 0 0,0
09.08.2018 23:00:00 12,0 7,5 - - 13 7 - - WSW 1015,3 10 0 0,0
09.08.2018 22:00:00 12,5 6,3 - - 9 5 - - WSW 1015,2 28 0 0,0
09.08.2018 21:00:00 14,7 5,5 - - 16 9 - - W 1014,8 30 24 0,0
09.08.2018 20:00:00 16,8 4,0 - - 21 11 - - WSW 1014,0 10 18 0,0

tt = temperature
td = dewpoint
tt -20cm = temperature -20cm
tt -100cm = temperature -100cm
ff = wind speed
fx = gusts
dd = wind direction
ppp = reduced air pressure
vv = visibility
sd = sunshine duration
rr = precipitation

Next stations